Location: Malvern Link
(52.1333°N, 2.3000°W)
Time: 11:33:26
(UTC+00:00)

Envisat - Pass Details

Date: 25 January 2022
Orbit: 764 x 765 km, 98.2° (Epoch: 22 May)

Event Time Altitude Azimuth Distance (km) Brightness Sun altitude
Rises 06:31:51 0° 7° (N) 3,244 6.2 -13.3°
Reaches altitude 10° 06:34:27 10° 356° (N) 2,314 5.3 -12.9°
Maximum altitude 06:38:40 27° 300° (WNW) 1,451 3.9 -12.3°
Drops below altitude 10° 06:42:51 10° 244° (WSW) 2,302 5.0 -11.7°
Sets 06:45:27 0° 233° (SW) 3,225 5.9 -11.3°
